Konya, Turkey

12:11 PM +03 on May 25, 2017 (GMT +0300)
Konya Air Base

Weather History for LTAN - November, 2013

Change the Weather History Date:

Saturday, November 30, 2013

  Actual Average Record
Temperature  
Mean Temperature 33 °F -  
Max Temperature 43 °F 44 °F 55 °F (1996)
Min Temperature 23 °F 28 °F 23 °F (2004)
Degree Days  
Heating Degree Days 32    
Moisture  
Dew Point 24 °F    
Average Humidity 68    
Maximum Humidity 100    
Minimum Humidity 29    
Precipitation  
Precipitation 0.00 in 0.06 in - ()
Sea Level Pressure  
Sea Level Pressure 30.24 in    
Wind  
Wind Speed 3 mph ()    
Max Wind Speed 9 mph    
Max Gust Speed -    
Visibility 9.1 miles    
Events      
Averages and records for this station are not official NWS values.
T = Trace of Precipitation, MM = Missing Value Source: Averaged Metar Reports

Daily Weather History Graph

Daily Weather History Graph

Search for Another Location

Airport or City:

Trip Planner

Search our weather history database for the weather conditions in past years. The results will help you decide how hot, cold, wet, or windy it might be!

Date:

Astronomy

Nov. 30, 2013 Rise Set
Actual Time 6:45 AM EET 4:30 PM EET
Civil Twilight 6:16 AM EET 4:59 PM EET
Nautical Twilight 5:44 AM EET 5:32 PM EET
Astronomical Twilight 5:12 AM EET 6:04 PM EET
Moon 3:36 AM EET (11/30) 2:38 PM EET (11/30)
Length of Visible Light 10h 42m
Length of Day
9h 44m
Waning Crescent, 9% of the Moon is Illuminated
Nov 30
Waning Crescent
Dec 3
New
Dec 9
First Quarter
Dec 17
Full
Dec 25
Last Quarter

Hourly Weather History & Observations

Time (EET) Temp. Windchill Dew Point Humidity Pressure Visibility Wind Dir Wind Speed Gust Speed Precip Events Conditions
12:50 AM 28.4 °F 23.3 °F 24.8 °F 86% 30.15 in - WNW 4.6 mph - N/A   Clear
1:50 AM 28.4 °F - 24.8 °F 86% 30.15 in - Calm Calm - N/A   Clear
2:00 AM 29 °F - 25 °F 78%  in 12 mi Calm Calm - -  
2:50 AM 28.4 °F - 24.8 °F 86% 30.18 in - WNW 1.2 mph - N/A   Clear
3:50 AM 26.6 °F - 23.0 °F 86% 30.18 in - WNW 2.3 mph - N/A   Clear
4:50 AM 26.6 °F - 23.0 °F 86% 30.18 in - Calm Calm - N/A   Clear
5:00 AM 26 °F - 23 °F 84%  in 12 mi Calm Calm - -  
5:50 AM 28.4 °F - 23.0 °F 80% 30.21 in - SW 2.3 mph - N/A   Clear
6:30 AM 26.6 °F - 23.0 °F 86% 30.21 in 6.2 mi Calm Calm - N/A   Mist
6:50 AM 24.8 °F - 24.8 °F 100% 30.21 in - Calm Calm - N/A   Mist
7:50 AM 28.4 °F - 24.8 °F 86% 30.24 in - Calm Calm - N/A   Mist
8:00 AM 28 °F - 26 °F 88%  in 2 mi Calm Calm - -   Mist
8:50 AM 32.0 °F - 26.6 °F 80% 30.27 in - Calm Calm - N/A   Mist
9:35 AM 35.6 °F - 28.4 °F 75% 30.27 in 3.7 mi Calm Calm - N/A   Unknown
9:50 AM 35.6 °F - 28.4 °F 75% 30.27 in 4.3 mi Variable 2.3 mph - N/A   Unknown
10:50 AM 39.2 °F 33.6 °F 24.8 °F 56% 30.27 in - South 8.1 mph - N/A   Clear
11:00 AM 40 °F - 24 °F 41%  in 12 mi South 8.1 mph - -  
11:50 AM 41.0 °F 35.2 °F 23.0 °F 49% 30.24 in - South 9.2 mph - N/A   Clear
12:50 PM 42.8 °F 37.5 °F 23.0 °F 46% 30.24 in - SSE 9.2 mph - N/A   Clear
1:50 PM 42.8 °F 37.5 °F 21.2 °F 42% 30.24 in - SSE 9.2 mph - N/A   Clear
2:00 PM 43 °F - 22 °F 29%  in 12 mi SSE 9.2 mph - -  
2:50 PM 42.8 °F 38.6 °F 23.0 °F 46% 30.24 in - South 6.9 mph - N/A   Clear
3:50 PM 41.0 °F 37.1 °F 23.0 °F 49% 30.24 in - SE 5.8 mph - N/A   Clear
4:50 PM 37.4 °F 34.9 °F 23.0 °F 56% 30.24 in - SSE 3.5 mph - N/A   Clear
5:00 PM 37 °F - 23 °F 44%  in 12 mi SSE 3.5 mph - -  
5:50 PM 33.8 °F - 23.0 °F 65% 30.27 in - ESE 1.2 mph - N/A   Clear
6:50 PM 33.8 °F - 23.0 °F 65% 30.27 in - South 1.2 mph - N/A   Clear
7:50 PM 33.8 °F 27.7 °F 24.8 °F 70% 30.33 in - SSW 6.9 mph - N/A   Clear
8:00 PM 34 °F - 24 °F 57%  in 12 mi SSW 6.9 mph - -  
8:50 PM 35.6 °F 32.8 °F 24.8 °F 65% 30.30 in - South 3.5 mph - N/A   Clear
9:50 PM 35.6 °F 31.7 °F 26.6 °F 70% 30.30 in - SSW 4.6 mph - N/A   Clear
10:50 PM 35.6 °F - 26.6 °F 70% 30.33 in - SSE 1.2 mph - N/A   Clear
11:00 PM 35 °F - 26 °F 60%  in 12 mi SSE 1.2 mph - -  
11:50 PM 35.6 °F 31.7 °F 24.8 °F 65% 30.30 in - South 4.6 mph - N/A   Clear